sat.trackr.live / text

‹ back to catalog

STARLINK-32176

NORAD 60340 · 2024-136M

PAYLOAD ACTIVE UNKNOWN

§ Identity

Operator
Country
US
Launch date
2024-08-02
Launch site
AFETR
Launch vehicle
Mass (kg)
RCS (m²)

Purposes: comms

External: N2YO · Heavens-Above · Gunter

§ Orbital elements

Epoch: 2026-09-21T08:04:20.737632Z

Period
93.85 min
Inclination
53.1595°
Eccentricity
0.0001444
Mean motion
15.34389396 rev/d
Perigee alt
461.7 km
Apogee alt
463.7 km
Semi-major
6,840.9 km
B*
1.0933e-5
RAAN
245.8636°
Arg perigee
96.5786°
Mean anomaly
263.5381°
Rev number
12,080

§ Raw data

STARLINK-321761 60340U 24136M   26264.33635113 -.00000007  00000+0  10933-4 0  99912 60340  53.1595 245.8636 0001444  96.5786 263.5381 15.34389396120801

JSON: /api/v1/satellites/60340 · /tle

For live sub-satellite position, see the globe view (requires WebGL).

§ Visibility from observer

Set your observer location to see the next 7 days of passes ≥ 10°. The values pass through the URL so the page stays shareable.

No JS? Fill the form by hand. The geolocation button needs JavaScript.